Year,Month,Day,Hour,Minute,Value (Times are PST for temperature in C)
2015,06,28,00,00,24.40
2015,06,28,00,01,24.30
2015,06,28,00,02,24.30
2015,06,28,00,03,24.30
2015,06,28,00,04,24.30
2015,06,28,00,05,24.30
2015,06,28,00,06,24.20
2015,06,28,00,07,24.20
2015,06,28,00,08,24.20
2015,06,28,00,09,24.20
2015,06,28,00,10,24.10
2015,06,28,00,11,24.10
2015,06,28,00,12,24.10
2015,06,28,00,13,24.10
2015,06,28,00,14,24.00
2015,06,28,00,15,24.00
2015,06,28,00,16,23.90
2015,06,28,00,17,23.90
2015,06,28,00,18,23.90
2015,06,28,00,19,23.90
2015,06,28,00,20,23.80
2015,06,28,00,21,23.80
2015,06,28,00,22,23.80
2015,06,28,00,23,23.80
2015,06,28,00,24,23.70
2015,06,28,00,25,23.70
2015,06,28,00,26,23.70
2015,06,28,00,27,23.60
2015,06,28,00,28,23.60
2015,06,28,00,29,23.60
2015,06,28,00,30,23.50
2015,06,28,00,31,23.40
2015,06,28,00,32,23.40
2015,06,28,00,33,23.40
2015,06,28,00,34,23.40
2015,06,28,00,35,23.30
2015,06,28,00,36,23.30
2015,06,28,00,37,23.30
2015,06,28,00,38,23.20
2015,06,28,00,39,23.20
2015,06,28,00,40,23.20
2015,06,28,00,41,23.10
2015,06,28,00,42,23.10
2015,06,28,00,43,23.10
2015,06,28,00,44,23.00
2015,06,28,00,45,22.90
2015,06,28,00,46,22.90
2015,06,28,00,47,22.90
2015,06,28,00,48,22.80
2015,06,28,00,49,22.80
2015,06,28,00,50,22.80
2015,06,28,00,51,22.70
2015,06,28,00,52,22.70
2015,06,28,00,53,22.70
2015,06,28,00,54,22.70
2015,06,28,00,55,22.60
2015,06,28,00,56,22.60
2015,06,28,00,57,22.60
2015,06,28,00,58,22.60
2015,06,28,00,59,22.50
2015,06,28,01,00,22.50
2015,06,28,01,01,22.50
2015,06,28,01,02,22.40
2015,06,28,01,03,22.40
2015,06,28,01,04,22.40
2015,06,28,01,05,22.30
2015,06,28,01,06,22.30
2015,06,28,01,07,22.30
2015,06,28,01,08,22.30
2015,06,28,01,09,22.30
2015,06,28,01,10,22.20
2015,06,28,01,11,22.20
2015,06,28,01,12,22.20
2015,06,28,01,13,22.20
2015,06,28,01,14,22.10
2015,06,28,01,15,22.10
2015,06,28,01,16,22.10
2015,06,28,01,17,22.10
2015,06,28,01,18,22.10
2015,06,28,01,19,22.00
2015,06,28,01,20,22.00
2015,06,28,01,21,21.90
2015,06,28,01,22,21.90
2015,06,28,01,23,21.90
2015,06,28,01,24,21.90
2015,06,28,01,25,21.90
2015,06,28,01,26,21.90
2015,06,28,01,27,21.80
2015,06,28,01,28,21.80
2015,06,28,01,29,21.80
2015,06,28,01,30,21.80
2015,06,28,01,31,21.70
2015,06,28,01,32,21.70
2015,06,28,01,33,21.70
2015,06,28,01,34,21.70
2015,06,28,01,35,21.60
2015,06,28,01,36,21.60
2015,06,28,01,37,21.60
2015,06,28,01,38,21.50
2015,06,28,01,39,21.40
2015,06,28,01,40,21.40
2015,06,28,01,41,21.40
2015,06,28,01,42,21.30
2015,06,28,01,43,21.30
2015,06,28,01,44,21.30
2015,06,28,01,45,21.20
2015,06,28,01,46,21.20
2015,06,28,01,47,21.20
2015,06,28,01,48,21.20
2015,06,28,01,49,21.10
2015,06,28,01,50,21.10
2015,06,28,01,51,21.10
2015,06,28,01,52,21.10
2015,06,28,01,53,21.10
2015,06,28,01,54,21.00
2015,06,28,01,55,21.00
2015,06,28,01,56,20.90
2015,06,28,01,57,20.90
2015,06,28,01,58,20.90
2015,06,28,01,59,20.90
2015,06,28,02,00,20.90
2015,06,28,02,01,20.80
2015,06,28,02,02,20.80
2015,06,28,02,03,20.80
2015,06,28,02,04,20.80
2015,06,28,02,05,20.80
2015,06,28,02,06,20.80
2015,06,28,02,07,20.70
2015,06,28,02,08,20.70
2015,06,28,02,09,20.70
2015,06,28,02,10,20.70
2015,06,28,02,11,20.70
2015,06,28,02,12,20.60
2015,06,28,02,13,20.60
2015,06,28,02,14,20.60
2015,06,28,02,15,20.60
2015,06,28,02,16,20.60
2015,06,28,02,17,20.50
2015,06,28,02,18,20.50
2015,06,28,02,19,20.40
2015,06,28,02,20,20.40
2015,06,28,02,21,20.40
2015,06,28,02,22,20.40
2015,06,28,02,23,20.40
2015,06,28,02,24,20.40
2015,06,28,02,25,20.30
2015,06,28,02,26,20.30
2015,06,28,02,27,20.30
2015,06,28,02,28,20.30
2015,06,28,02,29,20.30
2015,06,28,02,30,20.30
2015,06,28,02,31,20.20
2015,06,28,02,32,20.20
2015,06,28,02,33,20.20
2015,06,28,02,34,20.20
2015,06,28,02,35,20.20
2015,06,28,02,36,20.20
2015,06,28,02,37,20.20
2015,06,28,02,38,20.10
2015,06,28,02,39,20.10
2015,06,28,02,40,20.10
2015,06,28,02,41,20.10
2015,06,28,02,42,20.10
2015,06,28,02,43,20.00
2015,06,28,02,44,20.00
2015,06,28,02,45,19.90
2015,06,28,02,46,19.90
2015,06,28,02,47,19.90
2015,06,28,02,48,19.80
2015,06,28,02,49,19.80
2015,06,28,02,50,19.80
2015,06,28,02,51,19.80
2015,06,28,02,52,19.80
2015,06,28,02,53,19.80
2015,06,28,02,54,19.70
2015,06,28,02,55,19.70
2015,06,28,02,56,19.70
2015,06,28,02,57,19.70
2015,06,28,02,58,19.70
2015,06,28,02,59,19.70
2015,06,28,03,00,19.60
2015,06,28,03,01,19.60
2015,06,28,03,02,19.60
2015,06,28,03,03,19.60
2015,06,28,03,04,19.60
2015,06,28,03,05,19.50
2015,06,28,03,06,19.50
2015,06,28,03,07,19.50
2015,06,28,03,08,19.40
2015,06,28,03,09,19.40
2015,06,28,03,10,19.40
2015,06,28,03,11,19.40
2015,06,28,03,12,19.40
2015,06,28,03,13,19.40
2015,06,28,03,14,19.30
2015,06,28,03,15,19.30
2015,06,28,03,16,19.30
2015,06,28,03,17,19.30
2015,06,28,03,18,19.30
2015,06,28,03,19,19.20
2015,06,28,03,20,19.20
2015,06,28,03,21,19.20
2015,06,28,03,22,19.20
2015,06,28,03,23,19.20
2015,06,28,03,24,19.20
2015,06,28,03,25,19.10
2015,06,28,03,26,19.10
2015,06,28,03,27,19.10
2015,06,28,03,28,19.10
2015,06,28,03,29,19.10
2015,06,28,03,30,19.00
2015,06,28,03,31,19.00
2015,06,28,03,32,19.00
2015,06,28,03,33,18.90
2015,06,28,03,34,18.90
2015,06,28,03,35,18.90
2015,06,28,03,36,18.90
2015,06,28,03,37,18.80
2015,06,28,03,38,18.80
2015,06,28,03,39,18.80
2015,06,28,03,40,18.80
2015,06,28,03,41,18.80
2015,06,28,03,42,18.80
2015,06,28,03,43,18.80
2015,06,28,03,44,18.70
2015,06,28,03,45,18.70
2015,06,28,03,46,18.70
2015,06,28,03,47,18.70
2015,06,28,03,48,18.70
2015,06,28,03,49,18.70
2015,06,28,03,50,18.70
2015,06,28,03,51,18.70
2015,06,28,03,52,18.70
2015,06,28,03,53,18.70
2015,06,28,03,54,18.70
2015,06,28,03,55,18.70
2015,06,28,03,56,18.60
2015,06,28,03,57,18.60
2015,06,28,03,58,18.60
2015,06,28,03,59,18.60
2015,06,28,04,00,18.60
2015,06,28,04,01,18.60
2015,06,28,04,02,18.60
2015,06,28,04,03,18.60
2015,06,28,04,04,18.60
2015,06,28,04,05,18.50
2015,06,28,04,06,18.50
2015,06,28,04,08,18.40
2015,06,28,04,09,18.40
2015,06,28,04,10,18.40
2015,06,28,04,11,18.40
2015,06,28,04,12,18.40
2015,06,28,04,13,18.40
2015,06,28,04,14,18.30
2015,06,28,04,15,18.30
2015,06,28,04,16,18.30
2015,06,28,04,17,18.30
2015,06,28,04,18,18.30
2015,06,28,04,19,18.30
2015,06,28,04,20,18.30
2015,06,28,04,21,18.30
2015,06,28,04,22,18.20
2015,06,28,04,23,18.20
2015,06,28,04,24,18.20
2015,06,28,04,25,18.20
2015,06,28,04,26,18.20
2015,06,28,04,27,18.10
2015,06,28,04,28,18.10
2015,06,28,04,29,18.10
2015,06,28,04,30,18.10
2015,06,28,04,31,18.10
2015,06,28,04,32,18.10
2015,06,28,04,33,18.10
2015,06,28,04,34,18.10
2015,06,28,04,35,18.10
2015,06,28,04,36,18.00
2015,06,28,04,37,18.00
2015,06,28,04,38,18.00
2015,06,28,04,39,18.00
2015,06,28,04,40,18.00
2015,06,28,04,41,18.00
2015,06,28,04,42,18.00
2015,06,28,04,43,17.90
2015,06,28,04,44,17.90
2015,06,28,04,45,17.90
2015,06,28,04,46,17.90
2015,06,28,04,47,17.90
2015,06,28,04,48,17.90
2015,06,28,04,49,17.90
2015,06,28,04,50,17.90
2015,06,28,04,51,17.90
2015,06,28,04,52,17.90
2015,06,28,04,53,17.80
2015,06,28,04,54,17.80
2015,06,28,04,55,17.80
2015,06,28,04,56,17.80
2015,06,28,04,57,17.80
2015,06,28,04,58,17.80
2015,06,28,04,59,17.80
2015,06,28,05,00,17.80
2015,06,28,05,01,17.80
2015,06,28,05,02,17.80
2015,06,28,05,03,17.80
2015,06,28,05,04,17.80
2015,06,28,05,05,17.80
2015,06,28,05,06,17.80
2015,06,28,05,07,17.80
2015,06,28,05,08,17.80
2015,06,28,05,09,17.80
2015,06,28,05,10,17.80
2015,06,28,05,11,17.80
2015,06,28,05,12,17.80
2015,06,28,05,13,17.80
2015,06,28,05,14,17.70
2015,06,28,05,15,17.70
2015,06,28,05,16,17.70
2015,06,28,05,17,17.70
2015,06,28,05,18,17.70
2015,06,28,05,19,17.70
2015,06,28,05,20,17.70
2015,06,28,05,21,17.60
2015,06,28,05,22,17.60
2015,06,28,05,23,17.60
2015,06,28,05,24,17.60
2015,06,28,05,25,17.60
2015,06,28,05,26,17.60
2015,06,28,05,27,17.60
2015,06,28,05,28,17.50
2015,06,28,05,29,17.50
2015,06,28,05,30,17.50
2015,06,28,05,31,17.50
2015,06,28,05,32,17.40
2015,06,28,05,33,17.40
2015,06,28,05,34,17.40
2015,06,28,05,35,17.40
2015,06,28,05,36,17.40
2015,06,28,05,37,17.40
2015,06,28,05,38,17.40
2015,06,28,05,39,17.40
2015,06,28,05,40,17.40
2015,06,28,05,41,17.40
2015,06,28,05,42,17.40
2015,06,28,05,43,17.40
2015,06,28,05,44,17.40
2015,06,28,05,45,17.40
2015,06,28,05,46,17.40
2015,06,28,05,47,17.40
2015,06,28,05,48,17.40
2015,06,28,05,49,17.40
2015,06,28,05,50,17.40
2015,06,28,05,51,17.40
2015,06,28,05,52,17.40
2015,06,28,05,53,17.40
2015,06,28,05,54,17.40
2015,06,28,05,55,17.40
2015,06,28,05,56,17.40
2015,06,28,05,57,17.40
2015,06,28,05,58,17.40
2015,06,28,05,59,17.40
2015,06,28,06,00,17.40
2015,06,28,06,01,17.50
2015,06,28,06,02,17.50
2015,06,28,06,03,17.60
2015,06,28,06,04,17.60
2015,06,28,06,05,17.60
2015,06,28,06,06,17.60
2015,06,28,06,07,17.70
2015,06,28,06,08,17.70
2015,06,28,06,09,17.70
2015,06,28,06,10,17.80
2015,06,28,06,11,17.90
2015,06,28,06,12,17.90
2015,06,28,06,13,18.10
2015,06,28,06,14,18.10
2015,06,28,06,15,18.20
2015,06,28,06,16,18.30
2015,06,28,06,17,18.30
2015,06,28,06,18,18.40
2015,06,28,06,19,18.50
2015,06,28,06,20,18.60
2015,06,28,06,21,18.60
2015,06,28,06,22,18.60
2015,06,28,06,23,18.70
2015,06,28,06,24,18.70
2015,06,28,06,25,18.70
2015,06,28,06,26,18.70
2015,06,28,06,27,18.70
2015,06,28,06,28,18.80
2015,06,28,06,29,18.80
2015,06,28,06,30,18.80
2015,06,28,06,31,18.80
2015,06,28,06,32,18.90
2015,06,28,06,33,18.90
2015,06,28,06,34,18.90
2015,06,28,06,35,18.90
2015,06,28,06,36,18.90
2015,06,28,06,37,18.90
2015,06,28,06,38,18.90
2015,06,28,06,39,18.90
2015,06,28,06,40,18.90
2015,06,28,06,41,18.90
2015,06,28,06,42,18.90
2015,06,28,06,43,18.90
2015,06,28,06,44,19.10
2015,06,28,06,45,19.10
2015,06,28,06,46,19.10
2015,06,28,06,47,19.20
2015,06,28,06,48,19.20
2015,06,28,06,49,19.30
2015,06,28,06,50,19.30
2015,06,28,06,51,19.30
2015,06,28,06,52,19.40
2015,06,28,06,53,19.50
2015,06,28,06,54,19.60
2015,06,28,06,55,19.60
2015,06,28,06,56,19.60
2015,06,28,06,57,19.60
2015,06,28,06,58,19.70
2015,06,28,06,59,19.70
2015,06,28,07,00,19.70
2015,06,28,07,01,19.70
2015,06,28,07,02,19.70
2015,06,28,07,03,19.70
2015,06,28,07,04,19.70
2015,06,28,07,05,19.80
2015,06,28,07,06,19.80
2015,06,28,07,07,19.90
2015,06,28,07,08,19.90
2015,06,28,07,09,19.90
2015,06,28,07,10,20.00
2015,06,28,07,11,20.10
2015,06,28,07,12,20.10
2015,06,28,07,13,20.20
2015,06,28,07,14,20.20
2015,06,28,07,15,20.20
2015,06,28,07,16,20.30
2015,06,28,07,17,20.30
2015,06,28,07,18,20.30
2015,06,28,07,19,20.30
2015,06,28,07,20,20.30
2015,06,28,07,21,20.30
2015,06,28,07,22,20.30
2015,06,28,07,23,20.30
2015,06,28,07,24,20.30
2015,06,28,07,25,20.30
2015,06,28,07,26,20.30
2015,06,28,07,27,20.30
2015,06,28,07,28,20.30
2015,06,28,07,29,20.30
2015,06,28,07,30,20.30
2015,06,28,07,31,20.30
2015,06,28,07,32,20.30
2015,06,28,07,33,20.30
2015,06,28,07,34,20.30
2015,06,28,07,35,20.30
2015,06,28,07,36,20.30
2015,06,28,07,37,20.30
2015,06,28,07,38,20.40
2015,06,28,07,39,20.40
2015,06,28,07,40,20.40
2015,06,28,07,41,20.50
2015,06,28,07,42,20.50
2015,06,28,07,43,20.60
2015,06,28,07,44,20.60
2015,06,28,07,45,20.60
2015,06,28,07,46,20.60
2015,06,28,07,47,20.60
2015,06,28,07,48,20.60
2015,06,28,07,49,20.60
2015,06,28,07,50,20.60
2015,06,28,07,51,20.70
2015,06,28,07,52,20.70
2015,06,28,07,53,20.80
2015,06,28,07,54,20.80
2015,06,28,07,55,20.80
2015,06,28,07,56,20.80
2015,06,28,07,57,20.90
2015,06,28,07,58,20.80
2015,06,28,07,59,20.80
2015,06,28,08,00,20.80
2015,06,28,08,01,20.80
2015,06,28,08,02,20.70
2015,06,28,08,03,20.70
2015,06,28,08,04,20.70
2015,06,28,08,05,20.70
2015,06,28,08,06,20.70
2015,06,28,08,07,20.70
2015,06,28,08,08,20.70
2015,06,28,08,09,20.70
2015,06,28,08,10,20.80
2015,06,28,08,11,20.80
2015,06,28,08,12,20.90
2015,06,28,08,13,21.00
2015,06,28,08,14,21.10
2015,06,28,08,15,21.10
2015,06,28,08,16,21.20
2015,06,28,08,17,21.30
2015,06,28,08,18,21.30
2015,06,28,08,19,21.40
2015,06,28,08,20,21.40
2015,06,28,08,21,21.40
2015,06,28,08,22,21.50
2015,06,28,08,23,21.50
2015,06,28,08,24,21.60
2015,06,28,08,25,21.70
2015,06,28,08,26,21.70
2015,06,28,08,27,21.80
2015,06,28,08,28,21.80
2015,06,28,08,29,21.90
2015,06,28,08,30,21.90
2015,06,28,08,31,22.00
2015,06,28,08,32,22.10
2015,06,28,08,33,22.10
2015,06,28,08,34,22.10
2015,06,28,08,35,22.10
2015,06,28,08,36,22.20
2015,06,28,08,37,22.20
2015,06,28,08,38,22.20
2015,06,28,08,39,22.20
2015,06,28,08,40,22.20
2015,06,28,08,41,22.30
2015,06,28,08,42,22.30
2015,06,28,08,43,22.40
2015,06,28,08,44,22.40
2015,06,28,08,45,22.50
2015,06,28,08,46,22.60
2015,06,28,08,47,22.70
2015,06,28,08,48,22.80
2015,06,28,08,49,22.90
2015,06,28,08,50,23.00
2015,06,28,08,51,23.10
2015,06,28,08,52,23.20
2015,06,28,08,53,23.30
2015,06,28,08,54,23.40
2015,06,28,08,55,23.40
2015,06,28,08,56,23.50
2015,06,28,08,57,23.60
2015,06,28,08,58,23.60
2015,06,28,08,59,23.60
2015,06,28,09,00,23.60
2015,06,28,09,01,23.60
2015,06,28,09,02,23.50
2015,06,28,09,03,23.40
2015,06,28,09,04,23.40
2015,06,28,09,05,23.40
2015,06,28,09,06,23.50
2015,06,28,09,07,23.60
2015,06,28,09,08,23.60
2015,06,28,09,09,23.70
2015,06,28,09,10,23.80
2015,06,28,09,11,23.90
2015,06,28,09,12,23.90
2015,06,28,09,13,24.10
2015,06,28,09,14,24.20
2015,06,28,09,15,24.20
2015,06,28,09,16,24.30
2015,06,28,09,17,24.40
2015,06,28,09,18,24.40
2015,06,28,09,19,24.60
2015,06,28,09,20,24.60
2015,06,28,09,21,24.70
2015,06,28,09,22,24.70
2015,06,28,09,23,24.70
2015,06,28,09,24,24.80
2015,06,28,09,25,24.80
2015,06,28,09,26,24.90
2015,06,28,09,27,25.10
2015,06,28,09,28,25.20
2015,06,28,09,29,25.30
2015,06,28,09,30,25.40
2015,06,28,09,31,25.60
2015,06,28,09,32,25.70
2015,06,28,09,33,25.80
2015,06,28,09,34,26.00
2015,06,28,09,35,26.10
2015,06,28,09,36,26.20
2015,06,28,09,37,26.30
2015,06,28,09,38,26.30
2015,06,28,09,39,26.40
2015,06,28,09,40,26.40
2015,06,28,09,41,26.40
2015,06,28,09,42,26.40
2015,06,28,09,43,26.40
2015,06,28,09,44,26.40
2015,06,28,09,45,26.30
2015,06,28,09,46,26.30
2015,06,28,09,47,26.30
2015,06,28,09,48,26.30
2015,06,28,09,49,26.30
2015,06,28,09,50,26.30
2015,06,28,09,51,26.30
2015,06,28,09,52,26.40
2015,06,28,09,53,26.50
2015,06,28,09,54,26.60
2015,06,28,09,55,26.60
2015,06,28,09,56,26.70
2015,06,28,09,57,26.70
2015,06,28,09,58,26.70
2015,06,28,09,59,26.70
2015,06,28,10,00,26.70
2015,06,28,10,01,26.80
2015,06,28,10,02,26.80
2015,06,28,10,03,26.80
2015,06,28,10,04,26.90
2015,06,28,10,05,27.10
2015,06,28,10,06,27.10
2015,06,28,10,07,27.20
2015,06,28,10,08,27.30
2015,06,28,10,09,27.40
2015,06,28,10,10,27.50
2015,06,28,10,11,27.60
2015,06,28,10,12,27.70
2015,06,28,10,13,27.70
2015,06,28,10,14,27.80
2015,06,28,10,15,27.90
2015,06,28,10,16,28.10
2015,06,28,10,17,28.20
2015,06,28,10,18,28.30
2015,06,28,10,19,28.40
2015,06,28,10,20,28.60
2015,06,28,10,21,28.70
2015,06,28,10,22,28.80
2015,06,28,10,23,28.80
2015,06,28,10,24,28.90
2015,06,28,10,25,28.90
2015,06,28,10,26,28.80
2015,06,28,10,27,28.80
2015,06,28,10,28,28.80
2015,06,28,10,29,28.80
2015,06,28,10,30,28.80
2015,06,28,10,31,28.80
2015,06,28,10,32,28.80
2015,06,28,10,33,28.80
2015,06,28,10,34,28.70
2015,06,28,10,35,28.60
2015,06,28,10,36,28.60
2015,06,28,10,37,28.60
2015,06,28,10,38,28.60
2015,06,28,10,39,28.60
2015,06,28,10,40,28.70
2015,06,28,10,41,28.70
2015,06,28,10,42,28.80
2015,06,28,10,43,28.80
2015,06,28,10,44,28.80
2015,06,28,10,45,28.90
2015,06,28,10,46,28.90
2015,06,28,10,47,29.10
2015,06,28,10,48,29.20
2015,06,28,10,49,29.30
2015,06,28,10,50,29.40
2015,06,28,10,51,29.50
2015,06,28,10,52,29.60
2015,06,28,10,53,29.70
2015,06,28,10,54,29.70
2015,06,28,10,55,29.80
2015,06,28,10,56,29.80
2015,06,28,10,57,29.80
2015,06,28,10,58,29.90
2015,06,28,10,59,29.90
2015,06,28,11,00,29.90
2015,06,28,11,01,30.00
2015,06,28,11,02,29.90
2015,06,28,11,03,29.90
2015,06,28,11,04,29.90
2015,06,28,11,05,29.90
2015,06,28,11,06,29.90
2015,06,28,11,07,30.00
2015,06,28,11,08,30.10
2015,06,28,11,09,30.10
2015,06,28,11,10,30.10
2015,06,28,11,11,30.20
2015,06,28,11,12,30.20
2015,06,28,11,13,30.30
2015,06,28,11,14,30.30
2015,06,28,11,15,30.40
2015,06,28,11,16,30.40
2015,06,28,11,17,30.60
2015,06,28,11,18,30.60
2015,06,28,11,19,30.70
2015,06,28,11,20,30.80
2015,06,28,11,21,30.90
2015,06,28,11,22,31.10
2015,06,28,11,23,31.10
2015,06,28,11,24,31.20
2015,06,28,11,25,31.20
2015,06,28,11,26,31.30
2015,06,28,11,27,31.40
2015,06,28,11,28,31.40
2015,06,28,11,29,31.60
2015,06,28,11,30,31.70
2015,06,28,11,31,31.70
2015,06,28,11,32,31.80
2015,06,28,11,33,31.90
2015,06,28,11,34,31.90
2015,06,28,11,35,32.00
2015,06,28,11,36,32.00
2015,06,28,11,37,32.10
2015,06,28,11,38,32.20
2015,06,28,11,39,32.30
2015,06,28,11,40,32.30
2015,06,28,11,41,32.40
2015,06,28,11,42,32.60
2015,06,28,11,43,32.60
2015,06,28,11,44,32.80
2015,06,28,11,45,32.90
2015,06,28,11,46,32.90
2015,06,28,11,47,33.00
2015,06,28,11,48,33.10
2015,06,28,11,49,33.10
2015,06,28,11,50,33.20
2015,06,28,11,51,33.20
2015,06,28,11,52,33.30
2015,06,28,11,53,33.40
2015,06,28,11,54,33.40
2015,06,28,11,55,33.50
2015,06,28,11,56,33.60
2015,06,28,11,57,33.60
2015,06,28,11,58,33.60
2015,06,28,11,59,33.60
2015,06,28,12,00,33.60
2015,06,28,12,01,33.60
2015,06,28,12,02,33.60
2015,06,28,12,03,33.60
2015,06,28,12,04,33.60
2015,06,28,12,05,33.60
2015,06,28,12,06,33.60
2015,06,28,12,07,33.60
2015,06,28,12,08,33.60
2015,06,28,12,09,33.60
2015,06,28,12,10,33.70
2015,06,28,12,11,33.70
2015,06,28,12,12,33.80
2015,06,28,12,13,33.80
2015,06,28,12,14,33.90
2015,06,28,12,15,33.90
2015,06,28,12,16,33.90
2015,06,28,12,17,33.90
2015,06,28,12,18,33.80
2015,06,28,12,19,33.80
2015,06,28,12,20,33.80
2015,06,28,12,21,33.80
2015,06,28,12,22,33.70
2015,06,28,12,23,33.70
2015,06,28,12,24,33.80
2015,06,28,12,25,33.80
2015,06,28,12,26,33.90
2015,06,28,12,27,33.90
2015,06,28,12,28,34.00
2015,06,28,12,29,34.00
2015,06,28,12,30,33.80
2015,06,28,12,31,33.70
2015,06,28,12,32,33.50
2015,06,28,12,33,33.30
2015,06,28,12,34,33.10
2015,06,28,12,35,32.90
2015,06,28,12,36,32.80
2015,06,28,12,37,32.70
2015,06,28,12,38,32.50
2015,06,28,12,39,32.40
2015,06,28,12,40,32.30
2015,06,28,12,41,32.30
2015,06,28,12,42,32.30
2015,06,28,12,43,32.20
2015,06,28,12,44,32.20
2015,06,28,12,45,32.30
2015,06,28,12,46,32.30
2015,06,28,12,47,32.30
2015,06,28,12,48,32.30
2015,06,28,12,49,32.20
2015,06,28,12,50,32.10
2015,06,28,12,51,32.10
2015,06,28,12,52,31.90
2015,06,28,12,53,31.80
2015,06,28,12,54,31.80
2015,06,28,12,55,31.70
2015,06,28,12,56,31.70
2015,06,28,12,57,31.70
2015,06,28,12,58,31.70
2015,06,28,12,59,31.60
2015,06,28,13,00,31.40
2015,06,28,13,01,31.40
2015,06,28,13,02,31.40
2015,06,28,13,03,31.40
2015,06,28,13,04,31.40
2015,06,28,13,05,31.40
2015,06,28,13,06,31.40
2015,06,28,13,07,31.40
2015,06,28,13,08,31.40
2015,06,28,13,09,31.30
2015,06,28,13,10,31.20
2015,06,28,13,11,31.20
2015,06,28,13,12,31.10
2015,06,28,13,13,31.00
2015,06,28,13,14,30.90
2015,06,28,13,15,30.80
2015,06,28,13,16,30.80
2015,06,28,13,17,30.70
2015,06,28,13,18,30.70
2015,06,28,13,19,30.60
2015,06,28,13,20,30.40
2015,06,28,13,21,30.40
2015,06,28,13,22,30.50
2015,06,28,13,23,30.50
2015,06,28,13,24,30.50
2015,06,28,13,25,30.60
2015,06,28,13,26,30.60
2015,06,28,13,27,30.60
2015,06,28,13,28,30.60
2015,06,28,13,29,30.60
2015,06,28,13,30,30.60
2015,06,28,13,31,30.60
2015,06,28,13,32,30.40
2015,06,28,13,33,30.30
2015,06,28,13,34,30.10
2015,06,28,13,35,29.90
2015,06,28,13,36,29.70
2015,06,28,13,37,29.60
2015,06,28,13,38,29.30
2015,06,28,13,39,29.20
2015,06,28,13,40,29.10
2015,06,28,13,41,28.90
2015,06,28,13,42,28.80
2015,06,28,13,43,28.70
2015,06,28,13,44,28.60
2015,06,28,13,45,28.60
2015,06,28,13,46,28.40
2015,06,28,13,47,28.30
2015,06,28,13,48,28.30
2015,06,28,13,49,28.20
2015,06,28,13,50,28.20
2015,06,28,13,51,28.10
2015,06,28,13,52,28.10
2015,06,28,13,53,28.10
2015,06,28,13,54,28.10
2015,06,28,13,55,28.10
2015,06,28,13,56,28.10
2015,06,28,13,57,28.10
2015,06,28,13,58,28.10
2015,06,28,13,59,28.00
2015,06,28,14,00,27.90
2015,06,28,14,01,27.90
2015,06,28,14,02,27.90
2015,06,28,14,03,28.00
2015,06,28,14,04,28.00
2015,06,28,14,05,28.00
2015,06,28,14,06,27.90
2015,06,28,14,07,27.90
2015,06,28,14,08,27.90
2015,06,28,14,09,27.90
2015,06,28,14,10,27.90
2015,06,28,14,11,27.90
2015,06,28,14,12,27.90
2015,06,28,14,13,27.80
2015,06,28,14,14,27.80
2015,06,28,14,15,27.70
2015,06,28,14,16,27.60
2015,06,28,14,17,27.60
2015,06,28,14,18,27.50
2015,06,28,14,19,27.40
2015,06,28,14,20,27.40
2015,06,28,14,21,27.40
2015,06,28,14,22,27.50
2015,06,28,14,23,27.60
2015,06,28,14,24,27.60
2015,06,28,14,25,27.60
2015,06,28,14,26,27.60
2015,06,28,14,27,27.60
2015,06,28,14,28,27.60
2015,06,28,14,29,27.60
2015,06,28,14,30,27.60
2015,06,28,14,31,27.50
2015,06,28,14,32,27.40
2015,06,28,14,33,27.40
2015,06,28,14,34,27.40
2015,06,28,14,35,27.40
2015,06,28,14,36,27.40
2015,06,28,14,37,27.40
2015,06,28,14,38,27.40
2015,06,28,14,39,27.40
2015,06,28,14,40,27.40
2015,06,28,14,41,27.40
2015,06,28,14,42,27.30
2015,06,28,14,43,27.30
2015,06,28,14,44,27.40
2015,06,28,14,45,27.40
2015,06,28,14,46,27.40
2015,06,28,14,47,27.40
2015,06,28,14,48,27.40
2015,06,28,14,49,27.50
2015,06,28,14,50,27.50
2015,06,28,14,51,27.60
2015,06,28,14,52,27.50
2015,06,28,14,53,27.40
2015,06,28,14,54,27.30
2015,06,28,14,55,27.30
2015,06,28,14,56,27.20
2015,06,28,14,57,27.20
2015,06,28,14,58,27.20
2015,06,28,14,59,27.20
2015,06,28,15,00,27.20
2015,06,28,15,01,27.20
2015,06,28,15,02,27.30
2015,06,28,15,03,27.30
2015,06,28,15,04,27.30
2015,06,28,15,05,27.30
2015,06,28,15,06,27.20
2015,06,28,15,07,27.20
2015,06,28,15,08,27.30
2015,06,28,15,09,27.30
2015,06,28,15,10,27.30
2015,06,28,15,11,27.30
2015,06,28,15,12,27.30
2015,06,28,15,13,27.20
2015,06,28,15,14,27.20
2015,06,28,15,15,27.20
2015,06,28,15,16,27.20
2015,06,28,15,17,27.20
2015,06,28,15,18,27.10
2015,06,28,15,19,27.10
2015,06,28,15,20,27.10
2015,06,28,15,21,27.10
2015,06,28,15,22,27.10
2015,06,28,15,23,27.20
2015,06,28,15,24,27.20
2015,06,28,15,25,27.20
2015,06,28,15,26,27.20
2015,06,28,15,27,27.20
2015,06,28,15,28,27.20
2015,06,28,15,29,27.20
2015,06,28,15,30,27.10
2015,06,28,15,31,27.10
2015,06,28,15,32,27.10
2015,06,28,15,33,27.10
2015,06,28,15,34,27.10
2015,06,28,15,35,27.10
2015,06,28,15,36,27.10
2015,06,28,15,37,27.10
2015,06,28,15,38,27.10
2015,06,28,15,39,27.20
2015,06,28,15,40,27.20
2015,06,28,15,41,27.30
2015,06,28,15,42,27.30
2015,06,28,15,43,27.30
2015,06,28,15,44,27.30
2015,06,28,15,45,27.20
2015,06,28,15,46,27.20
2015,06,28,15,47,27.20
2015,06,28,15,48,27.20
2015,06,28,15,49,27.20
2015,06,28,15,50,27.30
2015,06,28,15,51,27.30
2015,06,28,15,52,27.30
2015,06,28,15,53,27.30
2015,06,28,15,54,27.20
2015,06,28,15,55,27.20
2015,06,28,15,56,27.20
2015,06,28,15,57,27.10
2015,06,28,15,58,27.10
2015,06,28,15,59,27.10
2015,06,28,16,00,27.10
2015,06,28,16,01,27.10
2015,06,28,16,02,27.00
2015,06,28,16,03,27.00
2015,06,28,16,04,27.00
2015,06,28,16,05,27.00
2015,06,28,16,06,27.00
2015,06,28,16,07,27.10
2015,06,28,16,08,27.10
2015,06,28,16,09,27.10
2015,06,28,16,10,27.10
2015,06,28,16,11,27.10
2015,06,28,16,12,27.10
2015,06,28,16,13,27.20
2015,06,28,16,14,27.20
2015,06,28,16,15,27.20
2015,06,28,16,16,27.20
2015,06,28,16,17,27.20
2015,06,28,16,18,27.30
2015,06,28,16,19,27.30
2015,06,28,16,20,27.30
2015,06,28,16,21,27.30
2015,06,28,16,22,27.40
2015,06,28,16,23,27.40
2015,06,28,16,24,27.30
2015,06,28,16,25,27.30
2015,06,28,16,26,27.30
2015,06,28,16,27,27.30
2015,06,28,16,28,27.30
2015,06,28,16,29,27.30
2015,06,28,16,30,27.30
2015,06,28,16,31,27.30
2015,06,28,16,32,27.30
2015,06,28,16,33,27.30
2015,06,28,16,34,27.30
2015,06,28,16,35,27.30
2015,06,28,16,36,27.30
2015,06,28,16,37,27.30
2015,06,28,16,38,27.30
2015,06,28,16,39,27.30
2015,06,28,16,40,27.30
2015,06,28,16,41,27.30
2015,06,28,16,42,27.20
2015,06,28,16,43,27.20
2015,06,28,16,44,27.10
2015,06,28,16,45,27.10
2015,06,28,16,46,27.00
2015,06,28,16,47,27.00
2015,06,28,16,48,27.00
2015,06,28,16,49,27.00
2015,06,28,16,50,27.00
2015,06,28,16,51,27.00
2015,06,28,16,52,27.10
2015,06,28,16,53,27.10
2015,06,28,16,54,27.20
2015,06,28,16,55,27.20
2015,06,28,16,56,27.20
2015,06,28,16,57,27.20
2015,06,28,16,58,27.20
2015,06,28,16,59,27.20
2015,06,28,17,00,27.20
2015,06,28,17,01,27.20
2015,06,28,17,02,27.20
2015,06,28,17,03,27.20
2015,06,28,17,04,27.20
2015,06,28,17,05,27.20
2015,06,28,17,06,27.20
2015,06,28,17,07,27.20
2015,06,28,17,08,27.20
2015,06,28,17,09,27.20
2015,06,28,17,10,27.30
2015,06,28,17,11,27.30
2015,06,28,17,12,27.30
2015,06,28,17,13,27.30
2015,06,28,17,14,27.30
2015,06,28,17,15,27.30
2015,06,28,17,16,27.30
2015,06,28,17,17,27.30
2015,06,28,17,18,27.30
2015,06,28,17,19,27.30
2015,06,28,17,20,27.40